• In Hungary
  • List of Countries
  • For 7 days
  • Water Temperature
  • Satellite Maps
  • Weather Map
  • News
  • Weather Widgets
  • user-avatar
    Login

    Hourly Weather Otonec

    Today, 20 April, Friday

    Time Temperature Precipitation Wind Pressure Humidity
    00:00 +5°C° 0 mm 3 mps 741 mmHg 87%
    01:00 +4°C° 0 mm 3 mps 741 mmHg 90%
    02:00 +4°C° 0 mm 2 mps 741 mmHg 94%
    03:00 +4°C° 0 mm 2 mps 741 mmHg 95%
    04:00 +4°C° 0 mm 2 mps 741 mmHg 96%
    05:00 +3°C° 0 mm 3 mps 742 mmHg 98%
    06:00 +4°C° 0 mm 3 mps 742 mmHg 96%
    07:00 +5°C° 0 mm 2 mps 742 mmHg 94%
    08:00 +5°C° 0 mm 3 mps 742 mmHg 91%
    09:00 +7°C° 0 mm 2 mps 742 mmHg 87%
    10:00 +8°C° 0 mm 2 mps 742 mmHg 83%
    11:00 +9°C° 0 mm 2 mps 742 mmHg 79%
    12:00 +10°C° 0 mm 2 mps 741 mmHg 72%
    13:00 +12°C° 0 mm 2 mps 741 mmHg 65%
    14:00 +15°C° 0 mm 2 mps 740 mmHg 52%
    15:00 +15°C° 0 mm 2 mps 740 mmHg 54%
    16:00 +15°C° 0 mm 2 mps 739 mmHg 56%
    17:00 +15°C° 0 mm 2 mps 739 mmHg 58%
    18:00 +13°C° 0 mm 2 mps 738 mmHg 64%
    19:00 +10°C° 0 mm 2 mps 737 mmHg 70%
    20:00 +9°C° 0 mm 2 mps 737 mmHg 76%
    21:00 +9°C° 0 mm 3 mps 736 mmHg 77%
    22:00 +9°C° 0 mm 3 mps 735 mmHg 78%
    23:00 +9°C° 0 mm 3 mps 734 mmHg 79%

    Tomorrow, 21 April, Saturday

    Time Temperature Precipitation Wind Pressure Humidity
    00:00 +9°C° 0 mm 3 mps 734 mmHg 83%
    01:00 +9°C° 0 mm 3 mps 733 mmHg 87%
    02:00 +9°C° 0 mm 3 mps 732 mmHg 92%
    03:00 +9°C° 0 mm 3 mps 732 mmHg 93%
    04:00 +8°C° 0 mm 4 mps 731 mmHg 93%
    05:00 +8°C° 0 mm 4 mps 730 mmHg 94%
    06:00 +10°C° 0 mm 4 mps 729 mmHg 88%
    07:00 +9°C° 0 mm 5 mps 728 mmHg 82%
    08:00 +10°C° 0 mm 5 mps 727 mmHg 77%
    09:00 +11°C° 0.1 mm 6 mps 725 mmHg 76%
    10:00 +13°C° 0.1 mm 6 mps 724 mmHg 75%
    11:00 +13°C° 0.1 mm 6 mps 723 mmHg 75%
    12:00 +12°C° 0.7 mm 7 mps 723 mmHg 73%
    13:00 +12°C° 0.7 mm 7 mps 723 mmHg 72%
    14:00 +11°C° 0.7 mm 8 mps 723 mmHg 70%
    15:00 +10°C° 0.1 mm 8 mps 723 mmHg 70%
    16:00 +7°C° 0.1 mm 8 mps 724 mmHg 70%
    17:00 +6°C° 0.1 mm 8 mps 724 mmHg 70%
    18:00 +5°C° 0.1 mm 8 mps 725 mmHg 71%
    19:00 +5°C° 0.1 mm 7 mps 725 mmHg 73%
    20:00 +4°C° 0.1 mm 6 mps 726 mmHg 74%
    21:00 +4°C° 0 mm 6 mps 726 mmHg 76%
    22:00 +4°C° 0 mm 6 mps 727 mmHg 78%
    23:00 +3°C° 0 mm 5 mps 727 mmHg 80%

    Day after tomorrow, 22 April, Sunday

    Time Temperature Precipitation Wind Pressure Humidity
    00:00 +3°C° 0.1 mm 5 mps 727 mmHg 81%
    01:00 +3°C° 0.1 mm 5 mps 728 mmHg 82%
    02:00 +3°C° 0.1 mm 5 mps 728 mmHg 83%
    03:00 +2°C° 0.1 mm 5 mps 728 mmHg 84%
    04:00 +3°C° 0.1 mm 4 mps 729 mmHg 84%
    05:00 +3°C° 0.1 mm 4 mps 729 mmHg 85%
    06:00 +3°C° 0.1 mm 4 mps 729 mmHg 83%
    07:00 +3°C° 0.1 mm 4 mps 730 mmHg 81%
    08:00 +3°C° 0.1 mm 4 mps 730 mmHg 79%
    09:00 +3°C° 0 mm 4 mps 730 mmHg 76%
    10:00 +3°C° 0 mm 4 mps 731 mmHg 73%
    11:00 +4°C° 0 mm 4 mps 731 mmHg 70%
    12:00 +4°C° 0 mm 4 mps 732 mmHg 67%
    13:00 +4°C° 0 mm 4 mps 732 mmHg 65%
    14:00 +4°C° 0 mm 4 mps 732 mmHg 63%
    15:00 +4°C° 0 mm 4 mps 733 mmHg 62%
    16:00 +4°C° 0 mm 4 mps 733 mmHg 62%
    17:00 +4°C° 0 mm 4 mps 734 mmHg 62%
    18:00 +2°C° 0 mm 3 mps 734 mmHg 67%
    19:00 +1°C° 0 mm 3 mps 735 mmHg 71%
    20:00 +1°C° 0 mm 2 mps 735 mmHg 76%
    21:00 -1°C° 0 mm 2 mps 735 mmHg 78%
    22:00 -2°C° 0 mm 2 mps 736 mmHg 79%
    23:00 -1°C° 0 mm 1 mps 736 mmHg 81%

    23 April, Monday

    Time Temperature Precipitation Wind Pressure Humidity
    00:00 -1°C° 0 mm 1 mps 737 mmHg 81%
    01:00 -1°C° 0 mm 1 mps 737 mmHg 82%
    02:00 -2°C° 0 mm 1 mps 737 mmHg 82%
    03:00 -2°C° 0 mm 1 mps 738 mmHg 81%
    04:00 -2°C° 0 mm 1 mps 738 mmHg 81%
    05:00 -2°C° 0 mm 1 mps 739 mmHg 81%
    06:00 -2°C° 0 mm 2 mps 739 mmHg 70%
    07:00 +1°C° 0 mm 2 mps 739 mmHg 60%
    08:00 +2°C° 0 mm 2 mps 739 mmHg 49%
    09:00 +3°C° 0 mm 2 mps 739 mmHg 44%
    10:00 +5°C° 0 mm 2 mps 739 mmHg 39%
    11:00 +6°C° 0 mm 2 mps 739 mmHg 34%
    12:00 +7°C° 0 mm 2 mps 739 mmHg 33%
    13:00 +7°C° 0 mm 2 mps 739 mmHg 32%
    14:00 +9°C° 0 mm 1 mps 739 mmHg 31%
    15:00 +9°C° 0 mm 1 mps 739 mmHg 33%
    16:00 +8°C° 0 mm 1 mps 738 mmHg 35%
    17:00 +8°C° 0 mm 1 mps 738 mmHg 37%
    18:00 +6°C° 0 mm 1 mps 738 mmHg 43%
    19:00 +4°C° 0 mm 1 mps 738 mmHg 50%
    20:00 +2°C° 0 mm 1 mps 738 mmHg 57%
    21:00 +2°C° 0 mm 1 mps 738 mmHg 59%
    22:00 +1°C° 0 mm 1 mps 738 mmHg 61%
    23:00 -1°C° 0 mm 2 mps 738 mmHg 63%

    24 April, Tuesday

    Time Temperature Precipitation Wind Pressure Humidity
    00:00 -1°C° 0 mm 2 mps 737 mmHg 64%
    01:00 -1°C° 0 mm 2 mps 737 mmHg 65%
    02:00 -1°C° 0 mm 2 mps 737 mmHg 65%
    03:00 -1°C° 0 mm 2 mps 736 mmHg 64%
    04:00 -1°C° 0 mm 3 mps 736 mmHg 62%
    05:00 0°C° 0 mm 3 mps 736 mmHg 60%
    06:00 +1°C° 0.1 mm 3 mps 735 mmHg 59%
    07:00 +2°C° 0.1 mm 3 mps 735 mmHg 57%
    08:00 +4°C° 0.1 mm 3 mps 735 mmHg 56%
    09:00 +4°C° 0.3 mm 4 mps 734 mmHg 60%
    10:00 +5°C° 0.3 mm 4 mps 734 mmHg 64%
    11:00 +5°C° 0.3 mm 4 mps 734 mmHg 67%
    12:00 +5°C° 0.2 mm 4 mps 734 mmHg 70%
    13:00 +6°C° 0.2 mm 4 mps 733 mmHg 73%
    14:00 +6°C° 0.2 mm 4 mps 733 mmHg 76%
    15:00 +6°C° 0.3 mm 4 mps 733 mmHg 79%
    16:00 +5°C° 0.3 mm 4 mps 732 mmHg 83%
    17:00 +5°C° 0.3 mm 4 mps 732 mmHg 87%
    18:00 +5°C° 0.1 mm 3 mps 732 mmHg 89%
    19:00 +5°C° 0.1 mm 3 mps 732 mmHg 91%
    20:00 +4°C° 0.1 mm 3 mps 731 mmHg 93%
    21:00 +4°C° 0.2 mm 3 mps 731 mmHg 94%
    22:00 +4°C° 0.2 mm 3 mps 731 mmHg 95%
    23:00 +4°C° 0.2 mm 3 mps 731 mmHg 96%

    25 April, Wednesday

    Time Temperature Precipitation Wind Pressure Humidity
    00:00 +4°C° 0.2 mm 3 mps 731 mmHg 96%
    01:00 +5°C° 0.2 mm 2 mps 731 mmHg 96%
    02:00 +5°C° 0.2 mm 2 mps 730 mmHg 96%
    03:00 +4°C° 0 mm 2 mps 730 mmHg 96%
    04:00 +4°C° 0 mm 2 mps 730 mmHg 96%
    05:00 +2°C° 0 mm 3 mps 730 mmHg 96%
    06:00 +3°C° 0.2 mm 3 mps 730 mmHg 94%
    07:00 +4°C° 0.2 mm 3 mps 729 mmHg 91%
    08:00 +4°C° 0.2 mm 4 mps 729 mmHg 88%
    09:00 +5°C° 0.4 mm 4 mps 729 mmHg 87%
    10:00 +6°C° 0.4 mm 4 mps 728 mmHg 85%
    11:00 +6°C° 0.4 mm 4 mps 728 mmHg 84%
    12:00 +7°C° 0.5 mm 5 mps 728 mmHg 78%
    13:00 +8°C° 0.5 mm 5 mps 728 mmHg 72%
    14:00 +9°C° 0.5 mm 6 mps 728 mmHg 66%
    15:00 +8°C° 0.3 mm 5 mps 728 mmHg 67%
    16:00 +8°C° 0.3 mm 5 mps 728 mmHg 69%
    17:00 +8°C° 0.3 mm 4 mps 727 mmHg 71%
    18:00 +7°C° 0.1 mm 3 mps 728 mmHg 77%
    19:00 +5°C° 0.1 mm 3 mps 728 mmHg 84%
    20:00 +5°C° 0.1 mm 2 mps 728 mmHg 90%
    21:00 +5°C° 0.2 mm 2 mps 728 mmHg 92%
    22:00 +5°C° 0.2 mm 2 mps 728 mmHg 93%
    23:00 +3°C° 0.2 mm 3 mps 728 mmHg 95%
    Show more